Find Yaogan 43-03-03

NORAD ID: 61619 Int'l Des: 2024-190 Owner: ZZB Country: CN Constellation: yaogan operational
LEOCIRCULAR

实时位置

正在加载3D地球...

关于 Yaogan 43-03-03

正在加载描述...

即将过境

Passes for default location (London). Set your location on the main map for personalized predictions.

高度历史

Loading altitude history...

两行轨道根数

1 61619U 24190C 26104.79817406 .00001985 00000-0 83634-4 0 9995
2 61619 34.9951 236.7385 0005022 136.6306 223.4805 15.23103335 82150
Epoch: Apr 14, 2026 • Age: 9 hours

当前状态

高度 506.9 km
速度 7.61 km/s
星下点 -30.19°S, 89.68°W
发射日期 Oct 23, 2024
运行时间 1.4 years
类型 military

技术详情

分类 Payload
质量 300.00 kg
干质量 300.00 kg
总质量 300.00 kg
长度 2.50 m
直径 2.50 m
跨度 5.00 m
形状 Box + 2 Pan
制造商 SAST
阶段状态 In Orbit
所有者/国家 ZZB/CN

Most Searched